1400025631873,20.9544
1400025691873,20.8448
1400025751873,20.8437
1400025811873,20.8661
1400025871873,20.9189
1400025931873,20.7875
1400025991873,20.8824
1400026051873,20.9126
1400026111873,20.8613
1400026171873,20.8589
1400026231873,20.8531
1400026291873,20.8208
1400026351873,20.8171
1400026411873,21.4909
1400026471873,20.8943
1400026531873,20.8557
1400026591873,20.8323
1400026651873,20.7899
1400026711873,20.9017
1400026771873,20.8412
1400026831873,20.8527
1400026891873,20.8316
1400026951873,20.9090
1400027011873,20.8382
1400027071873,20.8797
1400027131873,20.8331
1400027191873,20.7772
1400027251873,20.8333
1400027311873,20.7904
1400027371873,20.8246
1400027431873,20.9036
1400027491873,20.8125
1400027551873,20.8983
1400027611873,20.8204
1400027671873,20.7135
1400027731873,20.8081
1400027791873,20.7592
1400027851873,20.7620
1400027911873,20.7427
1400027971873,20.7895
1400028031873,20.7670
1400028091873,20.7854
1400028151873,20.7815
1400028211873,20.7945
1400028271873,20.7380
1400028331873,20.7138
1400028391873,20.7277
1400028451873,20.7692
1400028511873,20.8619
1400028571873,20.7708
1400028631873,20.7692
1400028691873,20.9616
1400028751873,20.9143
1400028811873,20.8400
1400028871873,21.0150
1400028931873,20.9919
1400028991873,21.0123
1400029051873,20.9867
1400029111873,20.9339
1400029171873,21.0414
1400029231883,21.4368
1400029291883,20.8930
1400029351883,20.8980
1400029411883,20.9385
1400029471883,20.8717
1400029531883,20.8357
1400029591883,20.8599
1400029651883,20.9196
1400029711883,20.7564
1400029771883,20.7389
1400029831883,20.8192
1400029891883,20.7590
1400029951883,20.7240
1400030011883,20.7301
1400030071883,20.6863
1400030131883,20.6249
1400030191883,20.6347
1400030251883,20.6842
1400030311883,20.6796
1400030371883,20.5788
1400030431883,20.6464
1400030491883,20.6165
1400030551883,20.6237
1400030611883,20.5708
1400030671883,20.5622
1400030731883,20.6298
1400030791883,20.6645
1400030851883,20.6978
1400030911883,20.7070
1400030971883,20.5067
1400031031883,20.5115
1400031091883,20.5022
1400031151883,20.5672
1400031211883,20.5370
1400031271883,20.5343
1400031331883,20.4899
1400031391883,20.5633
1400031451883,20.5337
1400031511883,20.5058
1400031571883,20.5819
1400031631883,20.5188
1400031691883,20.6202
1400031751883,20.5484
1400031811883,20.5794
1400031871883,20.5331
1400031931883,20.6350
1400031991883,20.5219
1400032051883,20.5267
1400032111883,20.5440
1400032171883,20.5679
1400032231883,20.5841
1400032291883,20.4883
1400032351883,20.4997
1400032411883,20.4779
1400032471883,20.5099
1400032531883,20.4876
1400032591883,20.5137
1400032651883,20.5590
1400032711883,20.5287
1400032771883,20.5539
1400032831893,20.5037
1400032891893,20.4809
1400032951893,20.5681
1400033011893,20.5183
1400033071893,20.4839
1400033131893,20.4768
1400033191893,20.5509
1400033251893,20.5827
1400033311893,20.5314
1400033371893,20.6340
1400033431893,20.5784
1400033491893,20.6516
1400033551893,20.6524
1400033611893,20.5819
1400033671893,20.7136
1400033731893,20.6599
1400033791893,20.6105
1400033851893,20.6245
1400033911893,20.5872
1400033971893,20.6421
1400034031893,20.5831
1400034091893,20.5845
1400034151893,20.5910
1400034211893,20.5899
1400034271893,20.6276
1400034331893,20.5690
1400034391893,20.5451
1400034451893,20.5664
1400034511893,20.5642
1400034571893,20.5318
1400034631893,20.5599
1400034691893,20.5057
1400034751893,20.5687
1400034811893,20.5975
1400034871893,20.5386
1400034931893,20.6442
1400034991893,20.5732
1400035051893,20.6490
1400035111893,20.6377
1400035171893,20.5563
1400035231893,20.5812
1400035291893,20.5865
1400035351893,20.5857
1400035411893,20.6160
1400035471893,20.5863
1400035531893,20.6082
1400035591893,20.5849
1400035651893,20.6255
1400035711893,20.5896
1400035771893,20.6354
1400035831893,20.6409
1400035891893,20.5938
1400035951893,20.6066
1400036011893,20.7172
1400036071893,20.6555
1400036131893,20.6541
1400036191893,20.6190
1400036251893,20.5812
1400036311893,20.6351
1400036371893,20.6545
1400036431903,20.6674
1400036491903,20.7118
1400036551903,20.6750
1400036611903,20.6036
1400036671903,20.6432
1400036731903,20.6164
1400036791903,20.6094
1400036851903,20.5752
1400036911903,20.5726
1400036971903,20.6020
1400037031903,20.5301
1400037091903,20.5237
1400037151903,20.5039
1400037211903,20.4604
1400037271903,20.4326
1400037331903,20.4944
1400037391903,20.5571
1400037451903,20.5215
1400037511903,20.5214
1400037571903,20.5183
1400037631903,20.5579
1400037691903,20.5404
1400037751903,20.5550
1400037811903,20.6895
1400037871903,20.7448
1400037931903,20.7727
1400037991903,20.7310
1400038051903,20.7767
1400038111903,20.8283
1400038171903,20.7468
1400038231903,20.8404
1400038291903,20.7581
1400038351903,20.7734
1400038411903,20.8752
1400038471903,20.8122
1400038531903,20.7261
1400038591903,20.8234
1400038651903,20.7895
1400038711903,20.8096
1400038771903,20.8626
1400038831903,20.8815
1400038891903,20.8263
1400038951903,20.7910
1400039011903,20.7696
1400039071903,20.8021
1400039131903,20.7740
1400039191903,20.7258
1400039251903,20.7321
1400039311903,20.7386
1400039371903,20.7635
1400039431903,20.7827
1400039491903,20.7583
1400039551903,20.7020
1400039611903,20.7498
1400039671903,20.7228
1400039731903,20.6761
1400039791903,20.7002
1400039851903,20.7480
1400039911903,20.7918
1400039971903,20.7369
1400040031912,20.7211
1400040091912,20.7875
1400040151912,20.7599
1400040211912,20.7186
1400040271912,20.7793
1400040331912,20.7169
1400040391912,20.6715
1400040451912,20.7198
1400040511912,20.7249
1400040571912,20.6381
1400040631912,20.6780
1400040691912,20.6701
1400040751912,20.6537
1400040811912,20.6306
1400040871912,20.6112
1400040931912,20.7296
1400040991912,20.6704
1400041051912,20.6315
1400041111912,20.5997
1400041171912,20.6154
1400041231912,20.6399
1400041291912,20.5990
1400041351912,20.6610
1400041411912,20.6507
1400041471912,20.6569
1400041531912,20.6109
1400041591912,20.5993
1400041651912,20.6707
1400041711912,20.5968
1400041771912,20.5945
1400041831912,20.6170
1400041891912,20.6259
1400041951912,20.6743
1400042011912,20.6725
1400042071912,20.6091
1400042131912,20.6562
1400042191912,20.6443
1400042251912,20.6181
1400042311912,20.6930
1400042371912,20.8187
1400042431912,20.8962
1400042491912,21.0163
1400042551912,21.0196
1400042611912,21.0890
1400042671912,21.0586
1400042731912,20.8827
1400042791912,20.9228
1400042851912,21.0214
1400042911912,20.9737
1400042971912,20.8419
1400043031912,20.8984
1400043091912,20.8783
1400043151912,20.7498
1400043211912,20.8453
1400043271912,20.7634
1400043331912,20.7647
1400043391912,20.8363
1400043451912,20.8143
1400043511912,20.8020
1400043571912,20.7925
1400043631922,20.7346
1400043691922,20.8031
1400043751922,20.7163
1400043811922,20.8475
1400043871922,20.8387
1400043931922,20.8191
1400043991922,20.9379
1400044051922,20.8179
1400044111922,20.8286
1400044171922,20.8288
1400044231922,20.8334
1400044291922,20.7657
1400044351922,20.7587
1400044411922,20.7688
1400044471922,20.8279
1400044531922,20.7975
1400044591922,20.7798
1400044651922,20.7277
1400044711922,20.7814
1400044771922,20.7803
1400044831922,20.6837
1400044891922,20.6987
1400044951922,20.7753
1400045011922,20.7284
1400045071922,20.7591
1400045131922,20.6716
1400045191922,20.7198
1400045251922,20.6840
1400045311922,20.7016
1400045371922,20.6575
1400045431922,20.6567
1400045491922,20.6741
1400045551922,20.6102
1400045611922,20.6076
1400045671922,20.6239
1400045731922,20.5755
1400045791922,20.6008
1400045851922,20.6391
1400045911922,20.6176
1400045971922,20.6547
1400046031922,20.6273
1400046091922,20.7115
1400046151922,20.8550
1400046211922,20.6197
1400046271922,20.6543
1400046331922,20.6179
1400046391922,20.5701
1400046451922,20.6111
1400046511922,20.6437
1400046571922,20.6417
1400046631922,20.6296
1400046691922,20.6073
1400046751922,20.6055
1400046811922,20.6657
1400046871922,20.6869
1400046931922,20.6874
1400046991922,20.6025
1400047051922,20.6617
1400047111922,20.7093
1400047171922,20.6927
1400047231931,20.6569
1400047291931,20.6325
1400047351931,20.6240
1400047411931,20.6078
1400047471931,20.6075
1400047531931,20.5726
1400047591931,20.6498
1400047651931,20.6184
1400047711931,20.6267
1400047771931,20.6152
1400047831931,20.6742
1400047891931,20.6433
1400047951931,20.5907
1400048011931,20.6100
1400048071931,20.6622
1400048131931,20.6842
1400048191931,20.6957
1400048251931,20.7194
1400048311931,20.7180
1400048371931,20.7829
1400048431931,20.8514
1400048491931,20.6939
1400048551931,20.6769
1400048611931,20.7146
1400048671931,20.6825
1400048731931,20.6832
1400048791931,20.7869
1400048851931,20.6268
1400048911931,20.6995
1400048971931,20.6901
1400049031931,20.6730
1400049091931,20.6218
1400049151931,20.6779
1400049211931,20.7126
1400049271931,20.7227
1400049331931,20.7086
1400049391931,20.7246
1400049451931,20.6953
1400049511931,20.6829
1400049571931,20.6993
1400049631931,20.6906
1400049691931,20.6964
1400049751931,20.6922
1400049811931,20.6849
1400049871931,20.6541
1400049931931,20.7306
1400049991931,20.8072
1400050051931,20.7805
1400050111931,20.7100
1400050171931,20.7899
1400050231931,20.8385
1400050291931,20.8318
1400050351931,20.8043
1400050411931,20.7715
1400050471931,20.8691
1400050531931,20.7982
1400050591931,20.8365
1400050651931,20.8506
1400050711931,20.7542
1400050771931,20.8332
1400050831940,20.8771
1400050891940,20.8659
1400050951940,20.8494
1400051011940,20.9282
1400051071940,20.8421
1400051131940,20.8876
1400051191940,21.0066
1400051251940,21.0177
1400051311940,20.9396
1400051371940,20.9251
1400051431940,21.0083
1400051491940,21.0378
1400051551940,20.9763
1400051611940,20.9928
1400051671940,21.0463
1400051731940,21.0437
1400051791940,21.0689
1400051851940,20.9804
1400051911940,20.8932
1400051971940,20.9403
1400052031940,20.9772
1400052091940,20.9961
1400052151940,21.0501
1400052211940,20.9642
1400052271940,20.8581
1400052331940,20.9409
1400052391940,20.9692
1400052451940,20.9628
1400052511940,20.9564
1400052571940,20.9096
1400052631940,20.9507
1400052691940,20.9517
1400052751940,21.0000
1400052811940,21.0413
1400052871940,21.0428
1400052931940,20.9074
1400052991940,20.9645
1400053051940,20.9661
1400053111940,20.9632
1400053171940,20.9833
1400053231940,20.8965
1400053291940,20.8987
1400053351940,20.9115
1400053411940,20.9730
1400053471940,21.2798
1400053531940,20.9590
1400053591940,20.8933
1400053651940,20.8981
1400053711940,20.9480
1400053771940,20.9381
1400053831940,20.8983
1400053891940,20.9325
1400053951940,21.0564
1400054011940,21.1069
1400054071940,21.0667
1400054131940,21.0845
1400054191940,21.0354
1400054251940,21.1286
1400054311940,21.0349
1400054371940,21.1754
1400054431949,21.0679
1400054491949,21.0540
1400054551949,21.1147
1400054611949,21.2047
1400054671949,21.1305
1400054731949,21.1361
1400054791949,21.0871
1400054851949,21.1357
1400054911949,21.0954
1400054971949,21.1170
1400055031949,21.0752
1400055091949,21.0664
1400055151949,21.0958
1400055211949,21.1688
1400055271949,21.1553
1400055331949,21.1356
1400055391949,21.1658
1400055451949,21.0941
1400055511949,21.0618
1400055571949,21.1284
1400055631949,21.1962
1400055691949,21.2341
1400055751949,21.3242
1400055811949,21.2658
1400055871949,21.2251
1400055931949,21.1700
1400055991949,21.2968
1400056051949,21.2713
1400056111949,21.2644
1400056171949,21.3157
1400056231949,21.2974
1400056291949,21.3306
1400056351949,21.2688
1400056411949,21.3259
1400056471949,21.3064
1400056531949,21.2946
1400056591949,21.3051
1400056651949,21.4278
1400056711949,21.4033
1400056771949,21.3800
1400056831949,21.3322
1400056891949,21.3079
1400056951949,21.4118
1400057011949,21.3204
1400057071949,21.2946
1400057131949,21.3014
1400057191949,21.2882
1400057251949,21.2639
1400057311949,21.3448
1400057371949,21.3638
1400057431949,21.3640
1400057491949,21.3776
1400057551949,21.2911
1400057611949,21.3279
1400057671949,21.3502
1400057731949,21.2186
1400057791949,21.2034
1400057851949,21.2006
1400057911949,21.2091
1400057971949,21.2136
1400058031958,21.1868
1400058091958,21.2227
1400058151958,21.1672
1400058211958,21.1869
1400058271958,21.1928
1400058331958,21.2209
1400058391958,21.1673
1400058451958,21.1657
1400058511958,21.0977
1400058571958,21.0933
1400058631958,21.1078
1400058691958,21.1453
1400058751958,21.1513
1400058811958,21.1070
1400058871958,21.0532
1400058931958,21.1244
1400058991958,21.0726
1400059051958,21.0650
1400059111958,21.0420
1400059171958,21.0001
1400059231958,20.9972
1400059291958,20.9901
1400059351958,21.0401
1400059411958,20.9868
1400059471958,21.0271
1400059531958,21.0075
1400059591958,21.0196
1400059651958,21.0402
1400059711958,21.0047
1400059771958,21.0190
1400059831958,20.9738
1400059891958,21.0254
1400059951958,20.9863
1400060011958,20.9314
1400060071958,21.0057
1400060131958,20.9472
1400060191958,20.9318
1400060251958,20.8800
1400060311958,20.9678
1400060371958,20.9217
1400060431958,20.9841
1400060491958,20.9614
1400060551958,20.9467
1400060611958,20.9228
1400060671958,20.8846
1400060731958,20.9897
1400060791958,20.8930
1400060851958,20.9793
1400060911958,20.8716
1400060971958,20.9052
1400061031958,20.9186
1400061091958,20.8501
1400061151958,20.9590
1400061211958,21.0087
1400061271958,21.0367
1400061331958,21.0250
1400061391958,21.0104
1400061451958,20.9825
1400061511958,20.9904
1400061571958,20.9448
1400061631967,20.9325
1400061691967,20.9481
1400061751967,20.9525
1400061811967,20.8987
1400061871967,21.0089
1400061931967,20.9707
1400061991967,20.9380
1400062051967,21.0353
1400062111967,20.9426
1400062171967,21.0141
1400062231967,20.9536
1400062291967,21.0134
1400062351967,21.0735
1400062411967,21.0485
1400062471967,21.0203
1400062531967,21.0725
1400062591967,21.0508
1400062651967,21.0445
1400062711967,21.0410
1400062771967,21.1300
1400062831967,21.0469
1400062891967,21.0945
1400062951967,20.9363
1400063011967,21.0259
1400063071967,21.0208
1400063131967,21.0279
1400063191967,21.0958
1400063251967,20.9373
1400063311967,20.9436
1400063371967,20.9353
1400063431967,20.9753
1400063491967,20.8535
1400063551967,21.0041
1400063611967,20.9527
1400063671967,20.9079
1400063731967,20.9713
1400063791967,20.9236
1400063851967,20.9250
1400063911967,20.8144
1400063971967,20.7872
1400064031967,20.8338
1400064091967,20.8342
1400064151967,20.9325
1400064211967,20.9636
1400064271967,20.8957
1400064331967,20.9027
1400064391967,20.8763
1400064451967,20.9500
1400064511967,21.0028
1400064571967,20.7791
1400064631967,20.9473
1400064691967,20.9651
1400064751967,20.8917
1400064811967,20.9218
1400064871967,20.8915
1400064931967,20.8589
1400064991967,20.8543
1400065051967,20.9511
1400065111967,20.9217
1400065171967,20.9139
1400065231975,20.9750
1400065291975,20.8461
1400065351975,20.9269
1400065411975,20.9126
1400065471975,20.8825
1400065531975,20.8848
1400065591975,20.9034
1400065651975,20.8433
1400065711975,20.8033
1400065771975,20.8448
1400065831975,20.8221
1400065891975,20.7656
1400065951975,20.7368
1400066011975,20.8544
1400066071975,20.8236
1400066131975,20.8098
1400066191975,20.8125
1400066251975,20.7179
1400066311975,20.7821
1400066371975,20.7464
1400066431975,20.7746
1400066491975,20.8347
1400066551975,20.7825
1400066611975,20.8016
1400066671975,20.7976
1400066731975,20.8099
1400066791975,20.8564
1400066851975,20.8025
1400066911975,20.7924
1400066971975,20.8008
1400067031975,20.8941
1400067091975,20.7890
1400067151975,20.7959
1400067211975,20.8140
1400067271975,20.9050
1400067331975,20.9073
1400067391975,20.8175
1400067451975,20.8303
1400067511975,20.8981
1400067571975,20.8828
1400067631975,20.8944
1400067691975,20.8659
1400067751975,20.8650
1400067811975,20.8390
1400067871975,20.8650
1400067931975,20.8300
1400067991975,20.8457
1400068051975,20.9034
1400068111975,20.8631
1400068171975,20.8470
1400068231975,20.9302
1400068291975,20.8777
1400068351975,20.8450
1400068411975,20.8132
1400068471975,20.8006
1400068531975,20.7718
1400068591975,20.7934
1400068651975,20.7410
1400068711975,20.7783
1400068771975,20.7800
1400068831984,20.7818
1400068891984,20.7965
1400068951984,20.7642
1400069011984,20.7644
1400069071984,20.7095
1400069131984,20.7879
1400069191984,20.7887
1400069251984,20.8110
1400069311984,20.8388
1400069371984,20.8338
1400069431984,20.8137
1400069491984,20.8612
1400069551984,20.8658
1400069611984,20.7834
1400069671984,20.8885
1400069731984,20.6994
1400069791984,20.9783
1400069851984,20.9159
1400069911984,20.9228
1400069971984,20.8128
1400070031984,20.9005
1400070091984,20.8565
1400070151984,20.8420
1400070211984,20.8489
1400070271984,20.8683
1400070331984,20.9265
1400070391984,20.9143
1400070451984,20.8273
1400070511984,20.8690
1400070571984,20.8911
1400070631984,20.8375
1400070691984,20.8608
1400070751984,20.8985
1400070811984,20.8906
1400070871984,20.9059
1400070931984,20.8377
1400070991984,20.8300
1400071051984,20.8134
1400071111984,20.8703
1400071171984,20.9278
1400071231984,20.8670
1400071291984,20.8939
1400071351984,21.0327
1400071411984,20.8834
1400071471984,20.9063
1400071531984,20.9515
1400071591984,20.8642
1400071651984,20.9053
1400071711984,20.8768
1400071771984,20.9260
1400071831984,20.9271
1400071891984,20.9261
1400071951984,20.9567
1400072011984,20.8760
1400072071984,20.9314
1400072131984,20.9664
1400072191984,20.8719
1400072251984,20.9494
1400072311984,20.8719
1400072371984,20.8969
1400072431993,21.1948
1400072491993,21.1316
1400072551993,21.0398
1400072611993,21.1098
1400072671993,21.0089
1400072731993,21.0706
1400072791993,20.9970
1400072851993,21.0685
1400072911993,21.1160
1400072971993,21.1175
1400073031993,21.1514
1400073091993,21.2831
1400073151993,21.4446
1400073211993,21.5215
1400073271993,21.5538
1400073331993,21.6993
1400073391993,21.6385
1400073451993,21.6265
1400073511993,21.4636
1400073571993,21.5159
1400073631993,21.3971
1400073691993,21.4949
1400073751993,21.4929
1400073811993,21.4510
1400073871993,21.4698
1400073931993,21.3444
1400073991993,21.3263
1400074051993,21.3728
1400074111993,21.3738
1400074171993,21.2722
1400074231993,21.2901
1400074291993,21.2366
1400074351993,21.2436
1400074411993,21.2868
1400074471993,21.2280
1400074531993,21.2284
1400074591993,21.1850
1400074651993,21.8449
1400074711993,21.3136
1400074771993,21.2857
1400074831993,21.2735
1400074891993,21.2890
1400074951993,21.2949
1400075011993,21.2541
1400075071993,21.3254
1400075131993,21.3148
1400075191993,21.3882
1400075251993,21.3512
1400075311993,21.3500
1400075371993,21.4161
1400075431993,21.4397
1400075491993,21.4084
1400075551993,21.4940
1400075611993,21.4183
1400075671993,21.3917
1400075731993,21.3700
1400075791993,21.4137
1400075851993,21.4606
1400075911993,21.4322
1400075971993,21.4728
1400076032002,21.4642
1400076092002,21.3642
1400076152002,21.4263
1400076212002,21.5131
1400076272002,21.5309
1400076332002,21.4789
1400076392002,21.5099
1400076452002,21.5677
1400076512002,21.5709
1400076572002,21.5428
1400076632002,21.6251
1400076692002,21.5566
1400076752002,21.6679
1400076812002,21.5862
1400076872002,21.5561
1400076932002,21.6148
1400076992002,21.6266
1400077052002,21.6668
1400077112002,21.6082
1400077172002,21.6424
1400077232002,21.6126
1400077292002,21.6078
1400077352002,21.7307
1400077412002,21.6975
1400077472002,21.7107
1400077532002,21.6610
1400077592002,21.6429
1400077652002,21.7333
1400077712002,21.6913
1400077772002,21.7080
1400077832002,21.7561
1400077892002,21.8599
1400077952002,21.7592
1400078012002,21.7839
1400078072002,21.8352
1400078132002,21.7955
1400078192002,21.7691
1400078252002,21.8032
1400078312002,21.8549
1400078372002,21.7744
1400078432002,21.8039
1400078492002,21.8638
1400078552002,21.8190
1400078612002,21.8313
1400078672002,21.8338
1400078732002,21.7821
1400078792002,21.8216
1400078852002,21.9092
1400078912002,21.9078
1400078972002,21.8056
1400079032002,21.7931
1400079092002,21.8128
1400079152002,21.8308
1400079212002,21.8265
1400079272002,21.7755
1400079332002,21.7821
1400079392002,21.7879
1400079452002,21.8118
1400079512002,21.8321
1400079572002,21.6997
1400079632011,21.7031
1400079692011,21.7207
1400079752011,21.7287
1400079812011,21.7858
1400079872011,21.7894
1400079932011,21.7464
1400079992011,21.6923
1400080052011,21.7237
1400080112011,21.6314
1400080172011,21.6104
1400080232011,21.7142
1400080292011,21.7067
1400080352011,21.6565
1400080412011,21.6013
1400080472011,21.5669
1400080532011,21.5390
1400080592011,21.5146
1400080652011,21.6021
1400080712011,21.5631
1400080772011,21.5864
1400080832011,21.5289
1400080892011,21.5989
1400080952011,21.5891
1400081012011,21.6343
1400081072011,21.5750
1400081132011,21.6802
1400081192011,21.5757
1400081252011,21.5424
1400081312011,21.6099
1400081372011,21.5791
1400081432011,21.6735
1400081492011,21.5493
1400081552011,21.5738
1400081612011,21.4932
1400081672011,21.6458
1400081732011,21.8030
1400081792011,21.6368
1400081852011,21.6455
1400081912011,21.6485
1400081972011,21.6106
1400082032011,21.6002
1400082092011,21.6009
1400082152011,21.5134
1400082212011,21.5892
1400082272011,21.6474
1400082332011,21.8081
1400082392011,21.9465
1400082452011,21.8648
1400082512011,21.7628
1400082572011,21.7998
1400082632011,21.6873
1400082692011,21.5886
1400082752011,21.5783
1400082812011,21.5548
1400082872011,21.5054
1400082932011,21.5444
1400082992011,21.5464
1400083052011,21.5841
1400083112011,21.5641
1400083172011,21.4862
1400083232020,21.4888
1400083292020,21.5124
1400083352020,21.4538
1400083412020,21.4736
1400083472020,21.4317
1400083532020,21.4370
1400083592020,21.4159
1400083652020,21.3830
1400083712020,21.3731
1400083772020,21.4030
1400083832020,21.3413
1400083892020,21.4430
1400083952020,21.4428
1400084012020,21.3907
1400084072020,21.3783
1400084132020,21.3816
1400084192020,21.3564
1400084252020,21.3539
1400084312020,21.3809
1400084372020,21.3470
1400084432020,21.3764
1400084492020,21.3780
1400084552020,21.2949
1400084612020,21.3176
1400084672020,21.3452
1400084732020,21.3798
1400084792020,21.2629
1400084852020,21.3697
1400084912020,21.1920
1400084972020,21.2782
1400085032020,21.2774
1400085092020,21.2364
1400085152020,21.1688
1400085212020,21.3711
1400085272020,21.2546
1400085332020,21.2087
1400085392020,21.2375
1400085452020,21.1935
1400085512020,21.2277
1400085572020,21.2990
1400085632020,21.2637
1400085692020,21.1527
1400085752020,21.2899
1400085812020,21.1894
1400085872020,21.1787
1400085932020,21.1756
1400085992020,21.1837
1400086052020,21.2202
1400086112020,21.1070
1400086172020,21.2775
1400086232020,21.2873
1400086292020,21.0916
1400086352020,21.1661
1400086412020,21.1794
1400086472020,21.0991
1400086532020,21.1103
1400086592020,21.1461
1400086652020,21.1302
1400086712020,21.1320
1400086772020,21.1034
1400086832029,21.0304
1400086892029,21.1252
1400086952029,21.0880
1400087012029,21.0552
1400087072029,21.1305
1400087132029,21.0871
1400087192029,21.1663
1400087252029,21.1012
1400087312029,21.1119
1400087372029,21.0856
1400087432029,21.1421
1400087492029,21.1250
1400088032029,21.2470
1400088092029,21.0322
1400088152029,21.1293
1400088212029,21.0956
1400088272029,21.1071
1400088332029,21.0832
1400088392029,21.0932
1400088452029,21.1346
1400088512029,21.1261
1400088572029,21.1227
1400088632029,21.1751
1400088692029,21.2120
1400088752029,21.1348
1400088812029,21.1730
1400088872029,21.1183
1400088932029,21.1243
1400088992029,21.1444
1400089052029,21.1889
1400089112029,21.1688
1400089172029,21.0817
1400089232029,21.0601
1400089292029,21.0420
1400089352029,21.0389
1400089412029,21.1483
1400089472029,21.1279
1400089532029,21.1166
1400089592029,21.0872
1400089652029,21.1158
1400089712029,21.0720
1400089772029,21.1447
1400089832029,21.1370
1400089892029,21.0927
1400089952029,21.0764
1400090012029,21.0724
1400090072029,21.0404
1400090132029,21.1278
1400090192029,21.1396
1400090252029,21.1497
1400090312029,21.0491
1400090372029,21.0837
1400090432038,21.0434
1400090492038,21.0120
1400090552038,21.0134
1400090612038,21.1504
1400090672038,21.0773
1400090732038,21.0427
1400090792038,21.1127
1400090852038,21.0843
1400090912038,21.1355
1400090972038,21.1329
1400091032038,21.1250
1400091092038,21.1070
1400091152038,21.0507
1400091212038,21.1130
1400091272038,21.1069
1400091332038,21.0806
1400091392038,21.1885
1400091452038,21.1312